Location: Keremma
(48.6451°N, 4.2456°W)
Time: 11:17:29
(UTC+00:00)

Daily predictions for brighter satellites

Satellite Brightness Start Highest point End
(mag) Time Altitude Azimuth Time Altitude Azimuth Time Altitude Azimuth
Cosmos 1092 Rocket 4.5 20:20:54 10° SSE 20:26:44 42° E 20:32:38 10° NNE
SJ-6B 4.0 20:27:36 10° S 20:31:08 41° W 20:34:42 10° NNW
Cosmos 2151 3.3 20:27:21 10° SSE 20:31:26 49° E 20:35:34 10° NNE
ERS-2 2.3 20:30:47 10° NNE 20:34:22 51° ESE 20:37:54 10° S
Cosmos 2084 4.5 20:32:59 10° S 20:36:09 22° ESE 20:39:24 10° ENE
Cosmos 1812 4.5 20:34:45 10° NNE 20:37:30 18° ENE 20:40:13 10° ESE
Cosmos 158 Rocket 4.0 20:32:44 10° S 20:37:51 66° ESE 20:43:08 10° NNE
Cosmos 2333 Rocket 3.9 20:34:22 10° N 20:38:43 22° NE 20:43:03 10° E
Cosmos 1980 Rocket 3.4 20:34:15 10° NW 20:39:30 40° WSW 20:44:43 10° S
GP-B 4.1 20:35:51 10° NNE 20:39:45 29° E 20:43:38 10° SE
BREEZE-M DEB (TANK) 3.6 20:37:47 10° W 20:40:47 59° SSW 20:49:14 10° ESE
Cosmos 923 Rocket 4.4 20:36:41 10° S 20:41:44 44° ESE 20:46:47 10° NE
Meteor 2-15 4.4 20:37:01 10° N 20:43:08 82° E 20:49:11 10° SSE
Nadezhda 4 Rocket 4.0 20:37:40 10° S 20:43:52 88° E 20:50:11 10° N
SPOT 1/Viking Rocket 3.9 20:39:09 10° SE 20:44:11 53° ENE 20:49:16 10° N
ERS-1 Rocket 4.2 20:40:46 10° ESE 20:44:55 27° ENE 20:49:05 10° N
SL-27 R/B 4.4 20:44:41 10° SE 20:46:27 14° E 20:48:19 10° ENE
USA 245 4.2 20:42:28 10° SE 20:46:50 39° ENE 20:50:24 10° N
Cosmos 371 Rocket 4.2 20:43:14 10° NNW 20:47:51 46° WSW 20:52:26 10° S
GEOS 3 Rocket 4.0 20:42:54 10° NE 20:48:07 71° NW 20:53:13 10° SW
USA 276 3.1 20:47:42 10° W 20:50:36 34° SSW 20:53:10 12° SE
Cosmos 2056 Rocket 4.2 20:46:33 10° NNW 20:51:38 41° ENE 20:56:16 12° SE
Cosmos 2322 Rocket 2.3 20:46:59 10° NNW 20:52:37 65° ENE 20:57:55 11° SE
Meteor 1-26 Rocket 4.3 20:51:57 10° N 20:57:55 76° ENE 21:03:40 10° SSE
Meteor 2-15 Rocket 4.5 20:56:40 10° N 21:02:47 89° E 21:08:51 10° S
CARTOSAT-1 4.1 20:59:31 13° SE 21:03:11 45° ENE 21:07:19 10° N
Cosmos 1633 4.3 21:00:19 10° SW 21:03:39 35° WNW 21:07:01 10° N
USA 234 4.4 21:00:47 10° ENE 21:06:53 43° N 21:13:00 10° WNW
Spot 2 Rocket 3.8 21:03:04 12° SE 21:07:37 55° ENE 21:12:36 10° N
Cosmos 2219 Rocket 3.5 21:05:02 10° NNW 21:09:49 27° NE 21:14:26 10° ESE
Cosmos 1371 Rocket 4.2 21:08:13 10° NNW 21:13:36 66° ENE 21:17:55 16° SE
Resurs 01 Rocket 2.4 21:10:03 10° S 21:14:22 51° W 21:18:45 10° NNW
BREEZE M DEB (TANK) 4.2 21:10:52 10° SSW 21:14:26 36° SE 21:29:38 10° ENE
Cosmos 1680 Rocket 3.5 21:10:26 10° S 21:15:38 64° ESE 21:20:51 10° NNE
Cosmos 2112 Rocket 4.1 21:11:00 10° S 21:16:09 56° ESE 21:21:18 10° NNE
Cosmos 1151 Rocket 3.0 21:13:50 10° N 21:18:13 72° E 21:21:47 15° SSE
Cosmos 1553 Rocket 4.1 21:15:26 10° N 21:21:27 60° ENE 21:26:24 16° SSE
Terra 2.6 21:19:00 17° SE 21:22:12 37° ENE 21:26:35 10° N
SL-16 R/B 2.6 21:17:41 10° NNW 21:23:17 62° WSW 21:28:19 13° S
ATLAS 5 CENTAUR R/B 3.4 21:22:44 10° NNW 21:27:28 33° NE 21:32:58 10° E
CZ-2C R/B 3.6 21:22:57 10° NNE 21:27:30 78° ESE 21:31:56 10° S
SPOT 3 Rocket 4.2 21:23:02 10° S 21:28:09 54° W 21:33:18 10° NNW
Cosmos 1271 Rocket 3.7 21:25:01 10° NNW 21:28:51 46° W 21:32:41 10° S
Meteor 2-3 Rocket 4.1 21:24:14 10° SSW 21:29:53 69° WNW 21:35:39 10° N
Cosmos 1809 Rocket 4.5 21:24:00 10° S 21:30:04 66° E 21:36:09 10° NNE
Cosmos 1328 Rocket 3.5 21:27:33 10° N 21:32:02 77° E 21:35:09 19° SSE
Cosmos 1766 Rocket 3.5 21:27:55 10° S 21:32:18 77° E 21:36:41 10° NNE
Cosmos 2237 4.2 21:27:46 10° NNW 21:33:32 84° WSW 21:37:45 19° SSE
NOSS 2-1 (E) 2.9 21:33:12 10° SSW 21:36:23 50° SE 21:39:43 10° NE
COSMOS 2428 3.8 21:32:21 10° NNW 21:37:33 35° NE 21:41:31 16° ESE
Gbstr 26 Del rocket 4.1 21:35:49 10° W 21:38:57 25° SW 21:40:43 18° S
JB-3 4.4 21:34:49 10° NNE 21:38:58 85° WNW 21:43:00 10° SSW
SPOT 5 2.6 21:36:47 22° SSE 21:39:33 70° ENE 21:44:00 10° N
ARIANE 5 R/B 2.6 21:36:31 20° SSE 21:39:37 85° ENE 21:44:06 10° NNW
Cosmos 1862 3.4 21:39:48 22° SSE 21:42:13 57° E 21:46:08 10° NNE
NOSS 3-1 (C) 4.2 21:35:37 10° NW 21:42:55 74° NE 21:49:23 19° SE
Cosmos 1782 3.7 21:40:05 10° NNW 21:43:56 45° W 21:47:20 13° SSW
Cosmos 292 Rocket 3.8 21:39:40 10° NNW 21:44:26 66° ENE 21:47:10 25° SE
Meteor 2-6 Rocket 4.1 21:42:52 10° NNW 21:48:18 88° ENE 21:52:00 21° SSE
Cosmos 1417 Rocket 4.5 21:42:55 10° N 21:49:17 79° E 21:53:44 20° SSE
Cosmos 1624 Rocket 4.2 21:47:49 10° NNW 21:53:01 69° WSW 21:56:25 22° S
S3M 4.1 21:47:12 10° N 21:53:38 71° E 21:57:51 23° SSE
Meteor 2-21 Rocket 4.5 21:50:10 17° S 21:54:59 66° E 22:01:06 10° NNE
Cosmos 1655 Rocket 4.2 21:54:13 20° SSE 21:58:34 59° E 22:04:51 10° NNE
USA 229 DEB 4.2 21:51:40 10° NW 21:58:50 62° NE 22:04:26 19° ESE
USA 229 4.2 21:51:46 10° NW 21:58:56 62° NE 22:04:33 19° ESE
COSMOS 2487 3.7 22:00:10 24° E 22:00:10 24° E 22:02:35 10° NE
Meteor 2-21 4.4 21:54:26 11° S 22:00:24 89° W 22:06:35 10° N
Cosmos 1420 Rocket 4.0 21:56:07 10° NNW 22:01:28 85° WSW 22:04:27 27° SSE
Cosmos 2360 Rocket 2.4 21:56:42 10° NNW 22:02:17 66° WSW 22:05:41 24° S
Cosmos 1174 3.1 22:02:58 10° NW 22:05:57 66° SW 22:06:29 52° S
Cosmos 1812 3.8 22:09:48 10° NNW 22:13:27 40° W 22:15:34 21° SSW
Cosmos 1500 Rocket 3.7 22:11:54 35° SSE 22:13:32 58° E 22:17:54 10° NNE
USA 267 4.0 22:08:21 10° ENE 22:13:50 28° SE 22:14:48 27° SE
Cosmos 2084 4.1 22:11:19 10° WSW 22:15:19 54° NW 22:19:28 10° NE
NOSS 3-1 (A) 4.1 22:12:05 10° NW 22:19:25 76° NE 22:25:00 24° SE
NOSS 2-1 (C) 3.8 22:17:31 10° WSW 22:20:41 49° NW 22:24:04 10° NNE
SL-27 R/B 3.3 22:18:07 14° SW 22:21:04 50° WNW 22:24:36 10° NNE
Cosmos 1833 4.2 22:15:57 10° SSW 22:21:44 88° WNW 22:27:34 10° NNE
COSMOS 2455 2.9 22:17:53 19° S 22:22:05 58° ESE 22:28:00 10° NE
Meteor 1-27 Rocket 3.7 22:17:16 10° N 22:22:58 81° ENE 22:25:47 32° SSE
Lacrosse 5 3.9 22:25:50 12° E 22:25:50 12° E 22:26:34 10° E
ERS-1 Rocket 3.6 22:20:25 22° SSW 22:23:28 48° W 22:28:21 10° NNW
Cosmos 2333 Rocket 2.1 22:18:04 10° NNW 22:23:45 87° WSW 22:26:23 33° SSE
Cosmos 1452 Rocket 3.5 22:18:44 10° NNW 22:24:01 79° ENE 22:26:16 35° SSE
H-2A R/B 3.5 22:21:44 10° NNE 22:25:55 63° ESE 22:27:05 43° SSE
COBE Rocket 4.5 22:26:51 31° ESE 22:28:24 41° ENE 22:32:50 10° N
NOSS 2-1 (D) 4.1 22:25:22 10° WSW 22:28:28 42° NW 22:31:49 10° NNE
BREEZE-M R/B 3.8 22:25:41 10° SW 22:31:56 16° E 22:32:59 10° E
Meteor 2-16 Rocket 4.4 22:26:31 21° SSW 22:30:48 82° W 22:36:56 10° N
Cosmos 1408 Rocket 4.1 22:27:58 20° SSW 22:30:48 54° WNW 22:35:04 10° N
Cosmos 2322 3.7 22:25:07 10° NNW 22:30:53 82° WSW 22:33:25 35° SSE
Cosmos 2297 Rocket 3.9 22:32:07 16° E 22:32:07 16° E 22:35:25 10° ENE
Cosmos 1743 Rocket 3.5 22:32:53 37° S 22:34:36 89° WSW 22:39:04 10° N
Sich 1 3.5 22:34:10 39° ESE 22:34:46 42° E 22:38:52 10° NNE
Cosmos 2322 Rocket 4.0 22:31:53 10° NW 22:36:10 23° WSW 22:39:44 13° SW
Cosmos 2237 Rocket 3.3 22:31:09 10° NNW 22:36:23 36° NE 22:39:29 21° ESE
BREEZE-M DEB (TANK) 2.0 22:37:33 10° WNW 22:42:20 61° SSW 22:42:20 61° SSW
Cosmos 1633 Rocket 4.3 22:44:04 26° E 22:44:13 26° E 22:47:51 10° NNE
Cosmos 2227 Rocket 4.0 22:44:30 15° E 22:44:30 15° E 22:47:28 10° ENE
Cosmos 1110 Rocket 4.1 22:40:59 10° NNW 22:46:19 67° ENE 22:48:10 40° SE
Cosmos 1331 Rocket 4.2 22:43:34 10° NNW 22:48:47 63° ENE 22:50:32 40° SE
USA 234 3.7 22:42:59 10° E 22:49:18 60° NNE 22:55:44 10° NW
IRIDIUM 104 4.3 22:45:20 10° N 22:50:35 85° W 22:52:31 40° S
Cosmos 1666 Rocket 4.3 22:50:45 37° ESE 22:51:05 37° E 22:55:12 10° NNE
Cosmos 2219 Rocket 2.3 22:48:40 10° NNW 22:54:12 64° WSW 22:56:08 39° S
Gblst 52 Del rocket 4.5 22:49:20 10° WNW 22:55:28 73° SSW 22:58:44 33° SE
IRIDIUM 114 4.4 22:54:29 10° N 22:59:43 72° W 23:01:38 39° SSW
Terra 3.2 22:57:53 21° SW 23:00:01 30° W 23:04:13 10° NNW
Spot 4 3.9 23:03:05 49° SE 23:04:17 71° ENE 23:09:07 10° N
Cosmos 1515 3.5 23:01:02 10° N 23:04:50 85° E 23:04:57 82° SE
SL-16 R/B 3.9 23:01:00 10° NNW 23:05:42 26° NE 23:09:37 13° E
Meteor 1-25 Rocket 4.1 23:06:07 44° S 23:07:58 79° E 23:13:33 10° NNE
Cosmos 2285 Rocket 4.2 23:02:32 10° NNW 23:08:44 60° WSW 23:11:08 37° SSW
Meteor 1-18 Rocket 4.4 23:03:05 10° N 23:08:54 64° ENE 23:10:44 42° SE
Cosmos 489 Rocket 4.4 23:06:28 34° SSW 23:09:29 83° ESE 23:15:53 10° NNE
Cosmos 2228 Rocket 3.8 23:07:28 10° NNW 23:11:41 45° W 23:12:46 37° SW
Cosmos 468 4.5 23:10:05 37° SSW 23:12:12 82° WNW 23:17:29 10° NNE
ATLAS 5 CENTAUR R/B 2.3 23:07:01 10° NW 23:12:32 72° SW 23:14:35 44° SSE
Cosmos 2315 Rocket 4.4 23:06:43 10° NNW 23:12:55 58° W 23:15:47 32° SSW
Cosmos 1862 Rocket 3.9 23:09:22 10° N 23:13:37 51° ENE 23:14:06 48° E
Cosmos 494 Rocket 3.8 23:12:47 47° SSW 23:14:19 86° ESE 23:19:29 10° NNE
Cosmos 1602 3.5 23:14:27 86° SE 23:14:31 87° E 23:18:23 10° N
Okean 1 3.1 23:10:53 10° N 23:14:54 79° E 23:15:05 77° ESE
USA 40 PKM 4.2 23:15:41 10° NW 23:19:16 79° SW 23:19:16 79° SW
SL-08 ROCKET BODY 4.4 23:19:00 44° SSE 23:20:55 68° E 23:27:03 10° NNE
COSMOS 2428 3.2 23:16:32 10° NW 23:22:00 48° WSW 23:23:31 39° SSW
Cosmos 1707 Rocket 3.5 23:18:11 10° NNW 23:22:33 75° W 23:23:04 65° SSW
Meteor 2-4 Rocket 4.1 23:17:17 10° N 23:23:10 58° ENE 23:24:59 41° SE
Cosmos 1666 3.9 23:26:25 32° ENE 23:26:25 32° ENE 23:29:25 10° NNE
Meteor 1-19 Rocket 4.1 23:21:32 10° NNW 23:27:09 80° W 23:28:36 51° S
Cosmos 1048 Rocket 4.4 23:28:52 29° SW 23:31:19 56° WNW 23:36:23 10° NNE
COSMOS 2487 4.4 23:33:23 20° W 23:34:29 24° WNW 23:37:18 10° N
TSX-5 4.0 23:35:45 63° E 23:35:45 63° E 23:40:15 10° NE
ALOS 2 2.4 23:36:46 73° SE 23:37:10 84° ENE 23:41:35 10° NNW
MINOTAUR IV R/B 4.4 23:35:00 10° NNW 23:39:34 87° WSW 23:39:56 75° SSE
Cosmos 1745 Rocket 4.1 23:39:17 45° SSE 23:41:01 61° E 23:47:14 10° NNE
Cosmos 2219 3.6 23:42:23 44° SE 23:43:02 46° ESE 23:48:31 10° NE
Cosmos 1302 Rocket 3.9 23:39:20 10° NNW 23:44:34 88° WSW 23:45:34 60° SSE
Cosmos 2084 Rocket 3.7 23:41:58 10° NW 23:45:47 56° WSW 23:45:47 56° WSW
Cosmos 1269 Rocket 4.0 23:47:42 58° SSE 23:48:24 64° ESE 23:53:38 10° NNE
USA 229 4.5 23:42:58 10° NW 23:49:47 42° WSW 23:51:57 35° SSW
Meteor 1-14 Rocket 4.1 23:51:46 55° S 23:53:04 84° E 23:58:46 10° NNE
